Regional Weather Roundup
Issued by NWS Charleston, SC

Current Version | Previous Version | Graphics & Text | Print | Product List | Glossary On
Versions: 1 2 3 4 5 6 7 8 9 10 11 12 13 14 15 16 17 18 19 20 21 22 23 24 25 26 27 28 29 30 31 32 33 34 35 36 37 38 39 40 41 42 43 44 45 46 47 48 49 50
589 ASUS42 KCHS 272212 RWRCHS REGIONAL WEATHER ROUNDUP NATIONAL WEATHER SERVICE CHARLESTON SC 600 PM EDT SAT MAY 27 2017 NOTE: "FAIR" INDICATES FEW OR NO CLOUDS BELOW 12,000 FEET WITH NO SIGNIFICANT WEATHER AND/OR OBSTRUCTIONS TO VISIBILITY. NOT ALL STATIONS ARE QUALITY CONTROLLED. USE DATA WITH CAUTION... ESPECIALLY DEWPOINT OBSERVATIONS. SCZ027-030-031-034>040-042>050-272300- ...SOUTHEAST SOUTH CAROLINA... CITY SKY/WX TMP DP RH WIND PRES REMARKS N CHARLESTON MOSUNNY 90 60 36 W13G20 29.91F WATERFRONT PRK N/A 84 70 62 SW13 29.92F JOHNS ISLAND FAIR 84 70 61 S13G20 29.93F PINOPOLIS N/A 88 66 48 W10 29.84F HX 90 MONCKS CORNER FAIR 88 57 35 W7 29.91F SUMMERVILLE FAIR 90 61 37 SW5 29.92F BEAUFORT MCAS SUNNY 91 61 36 SW16 29.94F HX 91 BEAUFORT ARPT NOT AVBL HILTON HEAD IS SUNNY 84 70 61 S14 29.96F WALTERBORO CLEAR 90 59 35 W13 29.93F ALLENDALE FAIR 90 59 35 SW9 29.91F ...SOUTHERN MIDLANDS AND PEE DEE... CITY SKY/WX TMP DP RH WIND PRES REMARKS GEORGETOWN FAIR 88 63 42 S9 29.91F KINGSTREE FAIR 88 61 40 SW6 29.90S ORANGEBURG SUNNY 89 59 36 W13 29.91F BARNWELL FAIR 91 61 35 SW8G17 29.93S HX 91 AIKEN FAIR 86 57 37 SW13 29.96F MANNING FAIR 90 64 43 W17 29.90F HX 91 COLUMBIA MOSUNNY 91 62 37 W10 29.89F HX 91 SUMTER SUNNY 90 63 41 W13 29.88S HX 90 FLORENCE CLOUDY 89 66 46 SW13 29.88F HX 91 MYRTLE BEACH MOSUNNY 90 63 40 W12 29.89F HX 90 N MYRTLE BEACH MOSUNNY 80 70 71 S17 29.88F $$ GAZ063-065-086>088-099>101-113>116-118-119-134>141-150-272300- ...SOUTHEAST GEORGIA... CITY SKY/WX TMP DP RH WIND PRES REMARKS SAVANNAH ARPT SUNNY 94 57 28 W15 29.96F HX 92 HUNTER AAF SUNNY 92 68 45 SW9 29.93F HX 96 FORT STEWART SUNNY 92 59 33 W12 29.94F HX 91 STATESBORO SUNNY 91 59 33 SW14 29.95F HX 90 SYLVANIA CLEAR 91 62 38 W7 29.95S HX 91 CLAXTON FAIR 90 62 39 S9 29.96F HX 90 ...CSRA...CENTRAL AND FAR SOUTHEAST GEORGIA... CITY SKY/WX TMP DP RH WIND PRES REMARKS THOMSON SUNNY 87 54 32 W15 29.99S AUGUSTA-BUSH SUNNY 92 55 28 W12 29.92S HX 90 AUGUSTA-DANIEL SUNNY 90 52 27 SW9G16 29.94F SWAINSBORO FAIR 90 55 31 SW12G17 29.98R VIDALIA SUNNY 90 59 35 SW12 29.97F EASTMAN FAIR 90 39 17 SW8 30.01S HAZLEHURST FAIR 91 59 34 W5 29.97F HX 90 ALMA SUNNY 92 59 33 SW8 29.98F HX 91 WAYCROSS SUNNY 95 65 36 SW10 29.98F HX 97 JESUP FAIR 91 54 27 W8 29.98F BAXLEY FAIR 91 64 40 SW8 29.97F HX 93 BRUNSWICK SUNNY 91 64 40 W6 29.98F HX 93 SAINT SIMONS SUNNY 83 71 67 S10 29.98F $$ SCZ027-028-034-036>038-045-046-048>050-GAZ119-141-272300- ...LAKE AND SUPPLEMENTAL COASTAL OBSERVATIONS... STATION/POSITION TIME TEMP WIND PRES WAVE SWELL AIR SEA DIR/SP/G HT/PER HT/PER/DIR (UTC) (F) (DEG/KT/KT) (MB) (FT/S) (FT/S/D) WINYAH BAY 2045 85 210/ 13 1013.0 LAKE MURRAY 2120 85 240/ 10/ 16 1012.2S ACE BASIN NERRS NOT AVBL FORT PULASKI 2142 85 190/ 7/ 11 1014.7F SAPELO ISLAND 2100 89 160/ 8 1015.0 $$ ANZ835-935-AMZ111-154-330-350-352-354-370-450-454-472-272300- ...C-MAN AND BUOY OBSERVATIONS... STATION/POSITION TIME TEMP WIND PRES WAVE SWELL AIR SEA DIR/SP/G HT/PER HT/PER/DIR (UTC) (F) (DEG/KT/KT) (MB) (FT/S) (FT/S/D) BUOY 41004 2150 77 75 210/ 16/ 17 1014.0F 3/ 5 2/150/ 7 BUOY 41008 2150 79 79 170/ 12/ 14 1015.0F 2/ 7 2/100/ 7 FOLLY BEACH CMAN 2100 79 200/ 15/ 17 1014.8F CAPERS NEARSHORE 2108 83 77 220/ 16/ 19 1013.7F FRIPP NEARSHORE 2108 79 78 210/ 14/ 19 1014.5F STATION/POSITION TIME TEMP WIND PRES WAVE SWELL AIR SEA DIR/SP/G HT/PER HT/PER/DIR (UTC) (F) (DEG/KT/KT) (MB) (FT/S) (FT/S/D) 5E ST. MARYS GA 2100 80 N/A 2/ 8 FRYING PAN BUOY 2150 76 76 220/ 17/ 19 1013.1F 4/ 5 2/110/14 BUOY 41025 2150 78 77 220/ 17/ 21 1012.3F 3/ 6 2/150/ 8 CAPE LOOKOUT NC 2100 78 200/ 12/ 15 1012.2F BUOY 41002 2150 77 78 240/ 12/ 14 1016.3R 3/ 7 2/150/ 7 BUOY 41010 2150 80 80 200/ 2/ 4 1017.1F 2/ 9 2/ 70/ 9 ST AUGUSTINE FL 2200 78 81 140/ 8/ 9 1017.0F $$

USA.gov is the U.S. government's official web portal to all federal, state and local government web resources and services.